Flag for Germany Weather past 2 weeks in Springe, Lower Saxony, Germany

Now
59 °F

Refreshingly cool.


Feels Like: 59 °F
Forecast: 49 / 74 °F
Wind: 2 mph from Northeast

Location: Wunstorf Airport

Current Time: Jul 31, 2015 at 9:54:06 PM

Latest Report: Jul 31, 2015 at 9:20 PM


Visibility: 4 mi

Pressure: 30.07 "Hg

Humidity: 55%

Dew point: 43 °F

Location of SpringeLocation

Historic Weather in Springe — Graph

°F

Springe temperature yesterday

Maximum temperature yesterday: 68 °F (at 3:20 PM)
Minimum temperature yesterday: 55 °F (at 7:20 AM)
Average temperature yesterday: 62 °F

Past Weeks' High & Low Weather Summary

 TemperatureHumidityPressure
High90 °F (Jul 17, 2:20 PM)100% (Jul 21, 1:20 AM)30.12 "Hg (Jul 21, 1:20 AM)
Low48 °F (Jul 31, 5:20 AM)29% (Jul 17, 3:20 PM)29.47 "Hg (Jul 25, 11:20 AM)
Average65 °F70%29.84 "Hg
* Reported Jul 16 8:20 PM — Jul 31 8:20 PM, Springe, Weather by CustomWeather, © 2015

Note: Actual official high and low records may vary slightly from our data, if they occured in-between our weather recording intervals... More about our weather records

Advertising

Springe weather history for previous 24 hours

 ConditionsComfort  
Time TempWeatherWind HumidityBarometerVisibility
8:20 PM
Fri, Jul 31
63 °FMild.5 mph45%30.07 "Hg4 mi
7:20 PM64 °FMild.5 mph49%30.07 "Hg4 mi
6:20 PM66 °FMild.5 mph43%30.07 "Hg4 mi
5:20 PM66 °FMild.7 mph37%30.07 "Hg4 mi
4:20 PM64 °FMild.9 mph43%30.09 "Hg4 mi
3:20 PM66 °FMild.8 mph40%30.09 "Hg4 mi
2:20 PM64 °FMild.12 mph43%30.09 "Hg4 mi
1:20 PM63 °FMild.9 mph45%30.12 "Hg4 mi
12:20 PM61 °FRefreshingly cool.8 mph52%30.12 "Hg4 mi
12:00 PM63 °FScattered clouds.9 mph49%30.09 "HgN/A
11:20 AM61 °FScattered clouds.10 mph52%30.12 "HgN/A
10:20 AM61 °FScattered clouds.12 mph59%30.09 "HgN/A
9:20 AM57 °FPassing clouds.12 mph67%30.09 "HgN/A
8:20 AM55 °FScattered clouds.10 mph77%30.09 "HgN/A
7:20 AM52 °FScattered clouds.8 mph82%30.07 "HgN/A
6:20 AM48 °FPassing clouds.7 mph94%30.07 "HgN/A
5:20 AM48 °FPassing clouds.6 mph87%30.07 "HgN/A
4:20 AM50 °FCool.8 mph88%30.07 "Hg3 mi
3:20 AM52 °FCool.8 mph82%30.07 "Hg3 mi
2:20 AM54 °FCool.9 mph77%30.04 "Hg4 mi
1:20 AM55 °FCool.9 mph77%30.04 "Hg4 mi
12:20 AM55 °FCool.8 mph72%30.04 "Hg4 mi
11:20 PM
Thu, Jul 30
55 °FCool.9 mph72%30.04 "Hg4 mi
10:20 PM57 °FCool.8 mph67%30.01 "Hg4 mi
9:20 PM59 °FCool.10 mph63%29.98 "Hg4 mi
Weather by CustomWeather, © 2015

See weather overviewHow to use our weather pages